BRU6509 UUEE-UWUU

Flight info

Callsign BRU6509
Flight time N/A
Altitude 39000
Route KOGOM3H/24L KOGOM L94 UNORO T788 NAMUD L994 DILUP DILUP3Z
Aircraft E195/M-SDE3GILORVW/S

Departure

Time N/A
Airport Sheremetyevo International Airport (UUEE)

Arrival

Time 2026-05-04 17:29
Airport Ufa International Airport (UWUU)
Time Latitude Longitude Altitude Speed Heading
2026-05-04 17:14 54.53562 55.06849 1888 ft 161 kts 67°
2026-05-04 17:14 54.54005 55.08633 1901 ft 162 kts 67°
2026-05-04 17:14 54.54885 55.12188 1913 ft 162 kts 68°
2026-05-04 17:15 54.55326 55.13961 1906 ft 162 kts 67°
2026-05-04 17:15 54.56210 55.17542 1911 ft 162 kts 67°
2026-05-04 17:16 54.57101 55.21150 1908 ft 162 kts 67°
2026-05-04 17:16 54.58427 55.26528 1839 ft 162 kts 67°
2026-05-04 17:17 54.58964 55.28143 1812 ft 162 kts 50°
2026-05-04 17:17 54.61186 55.32551 1790 ft 163 kts 52°
2026-05-04 17:18 54.61880 55.34063 1799 ft 164 kts 52°
2026-05-04 17:18 54.62934 55.36702 1787 ft 164 kts 58°
2026-05-04 17:19 54.64127 55.40055 1809 ft 164 kts 59°
2026-05-04 17:19 54.65308 55.43425 1792 ft 163 kts 59°
2026-05-04 17:20 54.66481 55.46784 1820 ft 165 kts 59°
2026-05-04 17:20 54.67597 55.49990 1810 ft 163 kts 59°
2026-05-04 17:20 54.68156 55.51594 1848 ft 160 kts 59°
2026-05-04 17:21 54.69293 55.54814 1819 ft 156 kts 57°
2026-05-04 17:21 54.70939 55.57062 1802 ft 158 kts
2026-05-04 17:22 54.72025 55.57333 1796 ft 158 kts 25°
2026-05-04 17:22 54.72725 55.58690 1784 ft 156 kts 77°
2026-05-04 17:23 54.71284 55.63510 1821 ft 158 kts 116°
2026-05-04 17:23 54.70824 55.65225 1804 ft 157 kts 110°
2026-05-04 17:23 54.70183 55.68825 1796 ft 157 kts 105°
2026-05-04 17:24 54.69890 55.70642 1810 ft 157 kts 105°
2026-05-04 17:24 54.68471 55.74091 1811 ft 158 kts 152°
2026-05-04 17:25 54.68003 55.74497 1819 ft 154 kts 150°
2026-05-04 17:25 54.66371 55.76161 1795 ft 151 kts 150°
2026-05-04 17:26 54.64568 55.77903 1811 ft 144 kts 149°
2026-05-04 17:26 54.62007 55.80388 1480 ft 131 kts 149°
2026-05-04 17:27 54.60452 55.81897 1135 ft 128 kts 152°
2026-05-04 17:27 54.59676 55.82646 980 ft 128 kts 152°
2026-05-04 17:28 54.58904 55.83395 810 ft 127 kts 152°
2026-05-04 17:29 54.56691 55.85564 455 ft 104 kts 152°
2026-05-04 17:29 54.55857 55.86444 450 ft 7 kts 67°